Time,TemperatureF,DewpointF,PressureIn,WindDirection,WindDirectionDegrees,WindSpeedMPH,WindSpeedGustMPH,Humidity,HourlyPrecipIn,Conditions,Clouds,dailyrainin,SoftwareType,DateUTC
2013-08-17 00:00:00,76.4,73.6,30.03,SE,132,0.0,23.0,91,0.00,,---,0.00,VWS V12.08,2013-08-17 04:00:00,
2013-08-17 00:01:00,76.4,73.6,30.03,SE,132,0.0,23.0,91,0.00,,---,0.00,VWS V12.08,2013-08-17 04:01:00,
2013-08-17 00:02:00,76.4,73.6,30.03,SE,132,0.0,23.0,91,0.00,,---,0.00,VWS V12.08,2013-08-17 04:02:00,
2013-08-17 00:07:00,76.5,73.7,30.03,SE,132,0.0,23.0,91,0.00,,---,0.00,VWS V12.08,2013-08-17 04:07:00,
2013-08-17 00:12:00,76.5,73.7,30.03,SE,132,0.0,23.0,91,0.00,,---,0.00,VWS V12.08,2013-08-17 04:12:00,
2013-08-17 00:17:00,76.5,74.0,30.03,SE,132,0.0,23.0,92,0.00,,---,0.00,VWS V12.08,2013-08-17 04:17:00,
2013-08-17 00:22:00,76.6,74.1,30.03,SE,132,0.0,23.0,92,0.00,,---,0.00,VWS V12.08,2013-08-17 04:22:00,
2013-08-17 00:27:00,76.6,74.1,30.03,SE,132,0.0,23.0,92,0.00,,---,0.00,VWS V12.08,2013-08-17 04:27:00,
2013-08-17 00:32:00,76.7,74.2,30.03,SE,132,0.0,23.0,92,0.00,,---,0.00,VWS V12.08,2013-08-17 04:32:00,
2013-08-17 00:37:00,76.7,74.2,30.03,SE,132,0.0,23.0,92,0.00,,---,0.00,VWS V12.08,2013-08-17 04:37:00,
2013-08-17 00:42:00,76.8,74.3,30.03,SE,132,0.0,23.0,92,0.00,,---,0.00,VWS V12.08,2013-08-17 04:42:00,
2013-08-17 00:47:00,76.8,74.3,30.03,SE,132,0.0,23.0,92,0.00,,---,0.00,VWS V12.08,2013-08-17 04:47:00,
2013-08-17 00:52:00,76.8,74.3,30.03,SE,132,0.0,23.0,92,0.00,,---,0.00,VWS V12.08,2013-08-17 04:52:00,
2013-08-17 00:57:00,76.7,74.2,30.03,SE,132,0.0,23.0,92,0.00,,---,0.00,VWS V12.08,2013-08-17 04:57:00,
2013-08-17 01:02:00,76.7,74.2,30.04,SE,132,0.0,23.0,92,0.00,,---,0.00,VWS V12.08,2013-08-17 05:02:00,
2013-08-17 01:07:00,76.7,74.2,30.04,SE,132,6.0,23.0,92,0.00,,---,0.00,VWS V12.08,2013-08-17 05:07:00,
2013-08-17 01:12:00,76.7,74.2,30.04,SE,132,4.0,23.0,92,0.00,,---,0.00,VWS V12.08,2013-08-17 05:12:00,
2013-08-17 01:17:00,76.7,74.2,30.04,SE,132,0.0,23.0,92,0.00,,---,0.00,VWS V12.08,2013-08-17 05:17:00,
2013-08-17 01:22:00,76.7,74.2,30.04,SE,132,6.0,23.0,92,0.00,,---,0.00,VWS V12.08,2013-08-17 05:22:00,
2013-08-17 01:27:00,76.9,74.7,30.04,South,169,5.0,23.0,93,0.00,,---,0.00,VWS V12.08,2013-08-17 05:27:00,
2013-08-17 01:32:00,76.9,74.4,30.03,South,187,2.0,23.0,92,0.00,,---,0.00,VWS V12.08,2013-08-17 05:32:00,
2013-08-17 01:37:00,76.8,74.0,30.02,South,187,4.0,23.0,91,0.00,,---,0.00,VWS V12.08,2013-08-17 05:37:00,
2013-08-17 01:42:00,76.8,74.0,30.02,South,187,0.0,23.0,91,0.00,,---,0.00,VWS V12.08,2013-08-17 05:42:00,
2013-08-17 01:47:00,76.7,73.9,30.02,South,187,0.0,23.0,91,0.00,,---,0.00,VWS V12.08,2013-08-17 05:47:00,
2013-08-17 01:52:00,76.7,73.9,30.02,South,187,0.0,23.0,91,0.00,,---,0.00,VWS V12.08,2013-08-17 05:52:00,
2013-08-17 01:57:00,76.6,74.1,30.02,South,187,0.0,23.0,92,0.00,,---,0.00,VWS V12.08,2013-08-17 05:57:00,
2013-08-17 02:02:00,76.5,74.0,30.02,South,187,0.0,23.0,92,0.00,,---,0.00,VWS V12.08,2013-08-17 06:02:00,
2013-08-17 02:07:00,76.5,74.0,30.02,South,187,0.0,23.0,92,0.00,,---,0.00,VWS V12.08,2013-08-17 06:07:00,
2013-08-17 02:12:00,76.4,73.9,30.02,South,187,0.0,23.0,92,0.00,,---,0.00,VWS V12.08,2013-08-17 06:12:00,
2013-08-17 02:17:00,76.3,73.8,30.02,South,187,0.0,23.0,92,0.00,,---,0.00,VWS V12.08,2013-08-17 06:17:00,
2013-08-17 02:22:00,76.3,73.8,30.02,South,187,0.0,23.0,92,0.00,,---,0.00,VWS V12.08,2013-08-17 06:22:00,
2013-08-17 02:27:00,76.2,73.7,30.02,South,187,0.0,23.0,92,0.00,,---,0.00,VWS V12.08,2013-08-17 06:27:00,
2013-08-17 02:32:00,76.2,73.7,30.01,South,187,0.0,23.0,92,0.00,,---,0.00,VWS V12.08,2013-08-17 06:32:00,
2013-08-17 02:37:00,76.1,73.6,30.01,South,187,0.0,23.0,92,0.00,,---,0.00,VWS V12.08,2013-08-17 06:37:00,
2013-08-17 02:42:00,76.1,73.6,30.00,South,187,0.0,23.0,92,0.00,,---,0.00,VWS V12.08,2013-08-17 06:42:00,
2013-08-17 02:47:00,76.0,73.5,30.00,South,187,0.0,23.0,92,0.00,,---,0.00,VWS V12.08,2013-08-17 06:47:00,
2013-08-17 02:52:00,75.8,73.6,30.00,South,187,0.0,23.0,93,0.00,,---,0.00,VWS V12.08,2013-08-17 06:52:00,
2013-08-17 02:57:00,75.7,73.5,30.00,South,187,0.0,23.0,93,0.00,,---,0.00,VWS V12.08,2013-08-17 06:57:00,
2013-08-17 03:02:00,75.7,73.5,30.01,South,187,0.0,23.0,93,0.00,,---,0.00,VWS V12.08,2013-08-17 07:02:00,
2013-08-17 03:07:00,75.6,73.4,30.01,South,187,0.0,23.0,93,0.00,,---,0.00,VWS V12.08,2013-08-17 07:07:00,
2013-08-17 03:12:00,75.6,73.4,30.01,South,187,0.0,23.0,93,0.00,,---,0.00,VWS V12.08,2013-08-17 07:12:00,
2013-08-17 03:17:00,75.5,73.3,30.01,South,187,0.0,23.0,93,0.00,,---,0.00,VWS V12.08,2013-08-17 07:17:00,
2013-08-17 03:22:00,75.4,73.2,30.00,South,187,0.0,23.0,93,0.00,,---,0.00,VWS V12.08,2013-08-17 07:22:00,
2013-08-17 03:27:00,75.3,73.1,30.00,South,187,0.0,23.0,93,0.00,,---,0.00,VWS V12.08,2013-08-17 07:27:00,
2013-08-17 03:32:00,75.3,73.1,30.00,South,187,0.0,23.0,93,0.00,,---,0.00,VWS V12.08,2013-08-17 07:32:00,
2013-08-17 03:37:00,75.2,73.4,30.00,South,187,0.0,23.0,94,0.00,,---,0.00,VWS V12.08,2013-08-17 07:37:00,
2013-08-17 03:42:00,75.0,73.2,30.00,South,187,0.0,23.0,94,0.00,,---,0.00,VWS V12.08,2013-08-17 07:42:00,
2013-08-17 03:47:00,74.9,73.1,30.00,South,187,0.0,23.0,94,0.00,,---,0.00,VWS V12.08,2013-08-17 07:47:00,
2013-08-17 03:52:00,74.7,72.9,30.00,South,187,0.0,23.0,94,0.00,,---,0.00,VWS V12.08,2013-08-17 07:52:00,
2013-08-17 03:57:00,74.7,72.9,30.00,South,187,0.0,23.0,94,0.00,,---,0.00,VWS V12.08,2013-08-17 07:57:00,
2013-08-17 04:02:00,74.6,72.8,30.00,South,187,0.0,23.0,94,0.00,,---,0.00,VWS V12.08,2013-08-17 08:02:00,
2013-08-17 04:07:00,74.5,72.7,30.00,South,187,0.0,23.0,94,0.00,,---,0.00,VWS V12.08,2013-08-17 08:07:00,
2013-08-17 04:12:00,74.5,72.7,30.00,South,187,0.0,23.0,94,0.00,,---,0.00,VWS V12.08,2013-08-17 08:12:00,
2013-08-17 04:17:00,74.5,73.0,30.00,South,187,0.0,23.0,95,0.00,,---,0.00,VWS V12.08,2013-08-17 08:17:00,
2013-08-17 04:22:00,74.5,73.0,30.00,South,187,0.0,23.0,95,0.00,,---,0.00,VWS V12.08,2013-08-17 08:22:00,
2013-08-17 04:27:00,74.4,72.9,29.99,South,187,0.0,23.0,95,0.00,,---,0.00,VWS V12.08,2013-08-17 08:27:00,
2013-08-17 04:32:00,74.4,72.9,29.99,South,187,0.0,23.0,95,0.00,,---,0.00,VWS V12.08,2013-08-17 08:32:00,
2013-08-17 04:37:00,74.5,73.0,29.99,South,187,0.0,23.0,95,0.00,,---,0.00,VWS V12.08,2013-08-17 08:37:00,
2013-08-17 04:42:00,74.6,73.1,29.99,South,187,0.0,23.0,95,0.00,,---,0.00,VWS V12.08,2013-08-17 08:42:00,
2013-08-17 04:47:00,74.7,73.2,29.99,South,187,0.0,23.0,95,0.00,,---,0.00,VWS V12.08,2013-08-17 08:47:00,
2013-08-17 04:52:00,74.8,73.3,29.99,South,187,0.0,23.0,95,0.00,,---,0.00,VWS V12.08,2013-08-17 08:52:00,
2013-08-17 04:57:00,74.8,73.3,29.98,South,187,0.0,23.0,95,0.00,,---,0.00,VWS V12.08,2013-08-17 08:57:00,
2013-08-17 05:02:00,74.8,73.3,29.98,South,187,0.0,23.0,95,0.00,,---,0.00,VWS V12.08,2013-08-17 09:02:00,
2013-08-17 05:07:00,74.7,73.2,29.98,South,187,0.0,23.0,95,0.00,,---,0.00,VWS V12.08,2013-08-17 09:07:00,
2013-08-17 05:12:00,74.8,73.6,29.98,South,187,0.0,23.0,96,0.00,,---,0.00,VWS V12.08,2013-08-17 09:12:00,
2013-08-17 05:17:00,74.9,73.7,29.98,South,187,0.0,23.0,96,0.00,,---,0.00,VWS V12.08,2013-08-17 09:17:00,
2013-08-17 05:22:00,74.9,73.7,29.98,South,187,0.0,23.0,96,0.00,,---,0.00,VWS V12.08,2013-08-17 09:22:00,
2013-08-17 05:27:00,74.9,73.7,29.98,South,187,0.0,23.0,96,0.00,,---,0.00,VWS V12.08,2013-08-17 09:27:00,
2013-08-17 05:32:00,74.9,73.7,29.98,South,187,0.0,23.0,96,0.00,,---,0.00,VWS V12.08,2013-08-17 09:32:00,
2013-08-17 05:37:00,74.9,73.7,29.99,South,187,0.0,23.0,96,0.00,,---,0.00,VWS V12.08,2013-08-17 09:37:00,
2013-08-17 05:42:00,74.9,73.7,29.99,South,187,0.0,23.0,96,0.00,,---,0.00,VWS V12.08,2013-08-17 09:42:00,
2013-08-17 05:47:00,74.9,73.4,29.99,South,187,0.0,23.0,95,0.00,,---,0.00,VWS V12.08,2013-08-17 09:47:00,
2013-08-17 05:52:00,74.9,73.7,29.99,South,187,0.0,23.0,96,0.00,,---,0.00,VWS V12.08,2013-08-17 09:52:00,
2013-08-17 05:57:00,74.9,73.7,29.99,South,187,0.0,23.0,96,0.00,,---,0.00,VWS V12.08,2013-08-17 09:57:00,
2013-08-17 06:02:00,74.9,73.7,29.99,South,187,0.0,23.0,96,0.00,,---,0.00,VWS V12.08,2013-08-17 10:02:00,
2013-08-17 06:07:00,74.9,73.7,29.99,South,187,0.0,23.0,96,0.00,,---,0.00,VWS V12.08,2013-08-17 10:07:00,
2013-08-17 06:12:00,74.9,73.7,30.00,South,187,0.0,23.0,96,0.00,,---,0.00,VWS V12.08,2013-08-17 10:12:00,
2013-08-17 06:17:00,74.9,73.7,29.99,South,187,0.0,23.0,96,0.00,,---,0.00,VWS V12.08,2013-08-17 10:17:00,
2013-08-17 06:22:00,74.9,73.7,30.00,South,187,0.0,23.0,96,0.00,,---,0.00,VWS V12.08,2013-08-17 10:22:00,
2013-08-17 06:27:00,75.0,73.8,30.00,South,187,0.0,23.0,96,0.00,,---,0.00,VWS V12.08,2013-08-17 10:27:00,
2013-08-17 06:32:00,75.1,73.9,30.00,South,187,0.0,23.0,96,0.00,,---,0.00,VWS V12.08,2013-08-17 10:32:00,
2013-08-17 06:37:00,75.1,73.9,30.00,South,187,0.0,23.0,96,0.00,,---,0.00,VWS V12.08,2013-08-17 10:37:00,
2013-08-17 06:42:00,75.0,73.8,30.00,South,187,0.0,23.0,96,0.00,,---,0.00,VWS V12.08,2013-08-17 10:42:00,
2013-08-17 06:47:00,75.1,73.9,30.00,South,187,0.0,23.0,96,0.00,,---,0.00,VWS V12.08,2013-08-17 10:47:00,
2013-08-17 06:52:00,75.1,73.9,30.01,South,187,0.0,23.0,96,0.00,,---,0.00,VWS V12.08,2013-08-17 10:52:00,
2013-08-17 06:57:00,75.0,73.8,30.01,South,187,0.0,23.0,96,0.00,,---,0.00,VWS V12.08,2013-08-17 10:57:00,
2013-08-17 07:02:00,75.0,73.8,30.01,South,187,0.0,23.0,96,0.00,,---,0.00,VWS V12.08,2013-08-17 11:02:00,
2013-08-17 07:07:00,75.1,73.9,30.01,South,187,0.0,23.0,96,0.00,,---,0.00,VWS V12.08,2013-08-17 11:07:00,
2013-08-17 07:12:00,75.2,74.0,30.01,South,187,0.0,23.0,96,0.00,,---,0.00,VWS V12.08,2013-08-17 11:12:00,
2013-08-17 07:17:00,75.3,74.1,30.01,South,187,0.0,23.0,96,0.00,,---,0.00,VWS V12.08,2013-08-17 11:17:00,
2013-08-17 07:22:00,75.4,74.2,30.02,South,187,0.0,23.0,96,0.00,,---,0.00,VWS V12.08,2013-08-17 11:22:00,
2013-08-17 07:27:00,75.5,74.3,30.02,South,187,0.0,23.0,96,0.00,,---,0.00,VWS V12.08,2013-08-17 11:27:00,
2013-08-17 07:32:00,75.5,74.3,30.02,South,187,0.0,23.0,96,0.00,,---,0.00,VWS V12.08,2013-08-17 11:32:00,
2013-08-17 07:37:00,75.7,74.8,30.02,South,187,0.0,23.0,97,0.00,,---,0.00,VWS V12.08,2013-08-17 11:37:00,
2013-08-17 07:42:00,75.8,74.9,30.02,South,187,0.0,23.0,97,0.00,,---,0.00,VWS V12.08,2013-08-17 11:42:00,
2013-08-17 07:47:00,76.0,75.1,30.02,South,187,0.0,23.0,97,0.00,,---,0.00,VWS V12.08,2013-08-17 11:47:00,
2013-08-17 07:52:00,76.1,75.2,30.02,South,187,0.0,23.0,97,0.00,,---,0.00,VWS V12.08,2013-08-17 11:52:00,
2013-08-17 07:57:00,76.4,75.5,30.02,South,187,0.0,23.0,97,0.00,,---,0.00,VWS V12.08,2013-08-17 11:57:00,
2013-08-17 08:02:00,76.8,75.9,30.02,South,187,0.0,23.0,97,0.00,,---,0.00,VWS V12.08,2013-08-17 12:02:00,
2013-08-17 08:07:00,77.2,76.3,30.03,South,187,0.0,23.0,97,0.00,,---,0.00,VWS V12.08,2013-08-17 12:07:00,
2013-08-17 08:12:00,77.6,76.7,30.03,South,187,0.0,23.0,97,0.00,,---,0.00,VWS V12.08,2013-08-17 12:12:00,
2013-08-17 08:17:00,77.8,76.9,30.03,South,187,0.0,23.0,97,0.00,,---,0.00,VWS V12.08,2013-08-17 12:17:00,
2013-08-17 08:22:00,78.0,77.1,30.03,South,187,0.0,23.0,97,0.00,,---,0.00,VWS V12.08,2013-08-17 12:22:00,
2013-08-17 08:27:00,78.2,77.3,30.03,South,187,3.0,23.0,97,0.00,,---,0.00,VWS V12.08,2013-08-17 12:27:00,
2013-08-17 08:32:00,78.4,77.5,30.03,South,187,0.0,23.0,97,0.00,,---,0.00,VWS V12.08,2013-08-17 12:32:00,
2013-08-17 08:37:00,78.7,77.8,30.02,South,187,0.0,23.0,97,0.00,,---,0.00,VWS V12.08,2013-08-17 12:37:00,
2013-08-17 08:42:00,79.1,78.2,30.02,South,187,0.0,23.0,97,0.00,,---,0.00,VWS V12.08,2013-08-17 12:42:00,
2013-08-17 08:47:00,79.5,78.3,30.02,South,187,4.0,23.0,96,0.00,,---,0.00,VWS V12.08,2013-08-17 12:47:00,
2013-08-17 08:52:00,79.8,78.6,30.02,South,187,3.0,23.0,96,0.00,,---,0.00,VWS V12.08,2013-08-17 12:52:00,
2013-08-17 08:57:00,80.3,79.1,30.02,South,174,0.0,23.0,96,0.00,,---,0.00,VWS V12.08,2013-08-17 12:57:00,
2013-08-17 09:02:00,80.5,78.9,30.02,South,184,5.0,23.0,95,0.00,,---,0.00,VWS V12.08,2013-08-17 13:02:00,
2013-08-17 09:07:00,80.7,78.8,30.02,South,172,4.0,23.0,94,0.00,,---,0.00,VWS V12.08,2013-08-17 13:07:00,
2013-08-17 09:12:00,81.1,79.2,30.02,South,175,1.0,23.0,94,0.00,,---,0.00,VWS V12.08,2013-08-17 13:12:00,
2013-08-17 09:17:00,81.6,79.7,30.03,SSW,194,9.0,23.0,94,0.00,,---,0.00,VWS V12.08,2013-08-17 13:17:00,
2013-08-17 09:22:00,81.8,79.6,30.03,South,187,4.0,23.0,93,0.00,,---,0.00,VWS V12.08,2013-08-17 13:22:00,
2013-08-17 09:27:00,82.3,79.8,30.03,SSE,168,6.0,23.0,92,0.00,,---,0.00,VWS V12.08,2013-08-17 13:27:00,
2013-08-17 09:32:00,82.5,79.6,30.03,South,175,5.0,23.0,91,0.00,,---,0.00,VWS V12.08,2013-08-17 13:32:00,
2013-08-17 09:37:00,83.0,80.1,30.04,South,182,3.0,23.0,91,0.00,,---,0.00,VWS V12.08,2013-08-17 13:37:00,
2013-08-17 09:42:00,83.4,80.2,30.04,South,178,0.0,23.0,90,0.00,,---,0.00,VWS V12.08,2013-08-17 13:42:00,
2013-08-17 09:47:00,83.7,80.1,30.04,South,171,4.0,23.0,89,0.00,,---,0.00,VWS V12.08,2013-08-17 13:47:00,
2013-08-17 09:52:00,83.9,80.3,30.04,SSE,167,0.0,23.0,89,0.00,,---,0.00,VWS V12.08,2013-08-17 13:52:00,
2013-08-17 09:57:00,84.4,80.5,30.05,SSE,165,0.0,23.0,88,0.00,,---,0.00,VWS V12.08,2013-08-17 13:57:00,
2013-08-17 10:02:00,84.7,80.4,30.05,South,181,5.0,23.0,87,0.00,,---,0.00,VWS V12.08,2013-08-17 14:02:00,
2013-08-17 10:07:00,85.0,80.7,30.05,SSE,163,0.0,23.0,87,0.00,,---,0.00,VWS V12.08,2013-08-17 14:07:00,
2013-08-17 10:12:00,85.2,80.2,30.05,SSE,149,0.0,23.0,85,0.00,,---,0.00,VWS V12.08,2013-08-17 14:12:00,
2013-08-17 10:17:00,85.5,80.8,30.05,SE,144,5.0,23.0,86,0.00,,---,0.00,VWS V12.08,2013-08-17 14:17:00,
2013-08-17 10:22:00,85.5,80.1,30.05,South,176,0.0,23.0,84,0.00,,---,0.00,VWS V12.08,2013-08-17 14:22:00,
2013-08-17 10:27:00,85.5,80.1,30.04,South,182,7.0,23.0,84,0.00,,---,0.00,VWS V12.08,2013-08-17 14:27:00,
2013-08-17 10:32:00,85.3,79.9,30.05,South,182,5.0,23.0,84,0.00,,---,0.00,VWS V12.08,2013-08-17 14:32:00,
2013-08-17 10:37:00,85.3,79.9,30.05,South,182,2.0,23.0,84,0.00,,---,0.00,VWS V12.08,2013-08-17 14:37:00,
2013-08-17 10:42:00,85.2,79.5,30.05,South,190,1.0,23.0,83,0.00,,---,0.00,VWS V12.08,2013-08-17 14:42:00,
2013-08-17 10:47:00,85.4,79.7,30.05,South,190,4.0,23.0,83,0.00,,---,0.00,VWS V12.08,2013-08-17 14:47:00,
2013-08-17 10:52:00,85.6,80.2,30.05,South,185,0.0,23.0,84,0.00,,---,0.00,VWS V12.08,2013-08-17 14:52:00,
2013-08-17 10:57:00,86.0,79.9,30.04,SSE,153,7.0,23.0,82,0.00,,---,0.00,VWS V12.08,2013-08-17 14:57:00,
2013-08-17 11:02:00,86.3,79.4,30.04,SSE,148,0.0,23.0,80,0.00,,---,0.00,VWS V12.08,2013-08-17 15:02:00,
2013-08-17 11:07:00,86.5,79.6,30.04,SSE,165,2.0,23.0,80,0.00,,---,0.00,VWS V12.08,2013-08-17 15:07:00,
2013-08-17 11:12:00,86.7,79.8,30.04,SSE,154,4.0,23.0,80,0.00,,---,0.00,VWS V12.08,2013-08-17 15:12:00,
2013-08-17 11:17:00,86.7,79.4,30.04,SSE,168,0.0,23.0,79,0.00,,---,0.00,VWS V12.08,2013-08-17 15:17:00,
2013-08-17 11:22:00,87.0,79.7,30.04,SSE,153,4.0,23.0,79,0.00,,---,0.00,VWS V12.08,2013-08-17 15:22:00,
2013-08-17 11:27:00,87.0,79.3,30.04,SSE,150,5.0,23.0,78,0.00,,---,0.00,VWS V12.08,2013-08-17 15:27:00,
2013-08-17 11:32:00,87.4,79.3,30.04,SSE,159,0.0,23.0,77,0.00,,---,0.00,VWS V12.08,2013-08-17 15:32:00,
2013-08-17 11:37:00,88.0,79.5,30.04,SE,142,4.0,23.0,76,0.00,,---,0.00,VWS V12.08,2013-08-17 15:37:00,
2013-08-17 11:42:00,88.2,79.3,30.04,SSE,152,0.0,23.0,75,0.00,,---,0.00,VWS V12.08,2013-08-17 15:42:00,
2013-08-17 11:47:00,88.2,79.7,30.04,South,175,9.0,23.0,76,0.00,,---,0.00,VWS V12.08,2013-08-17 15:47:00,
2013-08-17 11:52:00,88.1,79.6,30.04,South,180,5.0,23.0,76,0.00,,---,0.00,VWS V12.08,2013-08-17 15:52:00,
2013-08-17 11:57:00,88.1,79.6,30.04,SSW,196,4.0,23.0,76,0.00,,---,0.00,VWS V12.08,2013-08-17 15:57:00,
2013-08-17 12:02:00,88.1,78.8,30.04,SSE,156,6.0,23.0,74,0.00,,---,0.00,VWS V12.08,2013-08-17 16:02:00,
2013-08-17 12:07:00,88.7,78.9,30.04,SE,144,0.0,23.0,73,0.00,,---,0.00,VWS V12.08,2013-08-17 16:07:00,
2013-08-17 12:12:00,89.0,79.6,30.04,SE,128,5.0,23.0,74,0.00,,---,0.00,VWS V12.08,2013-08-17 16:12:00,
2013-08-17 12:17:00,89.4,79.6,30.04,SSE,153,2.0,23.0,73,0.00,,---,0.00,VWS V12.08,2013-08-17 16:17:00,
2013-08-17 12:22:00,89.6,80.2,30.04,SSE,153,0.0,23.0,74,0.00,,---,0.00,VWS V12.08,2013-08-17 16:22:00,
2013-08-17 12:27:00,89.6,79.8,30.03,SSE,149,4.0,23.0,73,0.00,,---,0.00,VWS V12.08,2013-08-17 16:27:00,
2013-08-17 12:32:00,89.2,78.1,30.03,SSE,165,0.0,23.0,70,0.00,,---,0.00,VWS V12.08,2013-08-17 16:32:00,
2013-08-17 12:37:00,88.8,79.0,30.03,South,181,4.0,23.0,73,0.00,,---,0.00,VWS V12.08,2013-08-17 16:37:00,
2013-08-17 12:42:00,88.6,78.8,30.03,South,181,0.0,23.0,73,0.00,,---,0.00,VWS V12.08,2013-08-17 16:42:00,
2013-08-17 12:47:00,88.6,78.8,30.03,South,182,1.0,23.0,73,0.00,,---,0.00,VWS V12.08,2013-08-17 16:47:00,
2013-08-17 12:52:00,88.5,78.7,30.03,SSE,150,5.0,23.0,73,0.00,,---,0.00,VWS V12.08,2013-08-17 16:52:00,
2013-08-17 12:57:00,88.4,78.7,30.02,SSE,148,4.0,23.0,73,0.00,,---,0.00,VWS V12.08,2013-08-17 16:57:00,
2013-08-17 13:02:00,88.4,78.7,30.03,SSE,148,2.0,23.0,73,0.00,,---,0.00,VWS V12.08,2013-08-17 17:02:00,
2013-08-17 13:07:00,88.4,78.7,30.02,SSE,148,0.0,23.0,73,0.00,,---,0.00,VWS V12.08,2013-08-17 17:07:00,
2013-08-17 13:12:00,88.5,78.7,30.02,SSE,148,0.0,23.0,73,0.00,,---,0.00,VWS V12.08,2013-08-17 17:12:00,
2013-08-17 13:17:00,88.7,78.9,30.03,SSE,148,2.0,23.0,73,0.00,,---,0.00,VWS V12.08,2013-08-17 17:17:00,
2013-08-17 13:22:00,88.9,78.7,30.02,SSE,148,0.0,23.0,72,0.00,,---,0.00,VWS V12.08,2013-08-17 17:22:00,
2013-08-17 13:27:00,89.1,78.5,30.02,SSE,148,0.0,23.0,71,0.00,,---,0.00,VWS V12.08,2013-08-17 17:27:00,
2013-08-17 13:32:00,89.2,78.6,30.02,SSE,148,0.0,23.0,71,0.00,,---,0.00,VWS V12.08,2013-08-17 17:32:00,
2013-08-17 13:37:00,89.2,78.6,30.02,SE,136,4.0,23.0,71,0.00,,---,0.00,VWS V12.08,2013-08-17 17:37:00,
2013-08-17 13:42:00,89.4,78.8,30.02,SE,124,2.0,23.0,71,0.00,,---,0.00,VWS V12.08,2013-08-17 17:42:00,
2013-08-17 13:47:00,89.7,78.6,30.02,SE,132,0.0,23.0,70,0.00,,---,0.00,VWS V12.08,2013-08-17 17:47:00,
2013-08-17 13:52:00,89.8,79.6,30.02,SE,132,2.0,23.0,72,0.00,,---,0.00,VWS V12.08,2013-08-17 17:52:00,
2013-08-17 13:57:00,89.8,78.7,30.02,SE,132,0.0,23.0,70,0.00,,---,0.00,VWS V12.08,2013-08-17 17:57:00,
2013-08-17 14:02:00,89.8,78.7,30.01,SE,132,2.0,23.0,70,0.00,,---,0.00,VWS V12.08,2013-08-17 18:02:00,
2013-08-17 14:07:00,89.7,78.6,30.01,SE,131,0.0,23.0,70,0.00,,---,0.00,VWS V12.08,2013-08-17 18:07:00,
2013-08-17 14:12:00,89.5,78.4,30.01,ESE,123,7.0,23.0,70,0.00,,---,0.00,VWS V12.08,2013-08-17 18:12:00,
2013-08-17 14:17:00,89.4,78.3,30.01,SE,126,0.0,23.0,70,0.00,,---,0.00,VWS V12.08,2013-08-17 18:17:00,
2013-08-17 14:22:00,89.4,78.8,30.01,SE,124,0.0,23.0,71,0.00,,---,0.00,VWS V12.08,2013-08-17 18:22:00,
2013-08-17 14:27:00,89.5,79.3,30.00,SSE,152,2.0,23.0,72,0.00,,---,0.00,VWS V12.08,2013-08-17 18:27:00,
2013-08-17 14:32:00,89.8,79.6,30.00,SSE,149,2.0,23.0,72,0.00,,---,0.00,VWS V12.08,2013-08-17 18:32:00,
2013-08-17 14:37:00,89.9,78.8,30.00,SSE,153,0.0,23.0,70,0.00,,---,0.00,VWS V12.08,2013-08-17 18:37:00,
2013-08-17 14:42:00,90.1,79.0,30.00,SSE,153,2.0,23.0,70,0.00,,---,0.00,VWS V12.08,2013-08-17 18:42:00,
2013-08-17 14:47:00,90.1,78.6,30.00,SE,133,4.0,23.0,69,0.00,,---,0.00,VWS V12.08,2013-08-17 18:47:00,
2013-08-17 14:52:00,90.2,78.7,30.00,SE,133,0.0,23.0,69,0.00,,---,0.00,VWS V12.08,2013-08-17 18:52:00,
2013-08-17 14:57:00,90.4,78.8,30.00,SE,133,0.0,23.0,69,0.00,,---,0.00,VWS V12.08,2013-08-17 18:57:00,
2013-08-17 15:02:00,90.2,78.2,29.99,SE,133,0.0,23.0,68,0.00,,---,0.00,VWS V12.08,2013-08-17 19:02:00,
2013-08-17 15:07:00,90.3,78.8,29.99,SE,133,0.0,23.0,69,0.00,,---,0.00,VWS V12.08,2013-08-17 19:07:00,
2013-08-17 15:12:00,90.4,78.8,29.99,SE,133,0.0,23.0,69,0.00,,---,0.00,VWS V12.08,2013-08-17 19:12:00,
2013-08-17 15:17:00,90.4,79.3,29.98,SE,133,0.0,23.0,70,0.00,,---,0.00,VWS V12.08,2013-08-17 19:17:00,
2013-08-17 15:22:00,90.5,79.4,29.98,SE,133,0.0,23.0,70,0.00,,---,0.00,VWS V12.08,2013-08-17 19:22:00,
2013-08-17 15:27:00,90.8,79.7,29.98,SE,133,4.0,23.0,70,0.00,,---,0.00,VWS V12.08,2013-08-17 19:27:00,
2013-08-17 15:32:00,91.2,79.6,29.97,SE,125,2.0,23.0,69,0.00,,---,0.00,VWS V12.08,2013-08-17 19:32:00,
2013-08-17 15:37:00,91.3,78.8,29.98,ESE,116,0.0,23.0,67,0.00,,---,0.00,VWS V12.08,2013-08-17 19:37:00,
2013-08-17 15:42:00,91.3,78.8,29.97,ESE,116,0.0,23.0,67,0.00,,---,0.00,VWS V12.08,2013-08-17 19:42:00,
2013-08-17 15:47:00,91.3,79.7,29.97,ESE,116,0.0,23.0,69,0.00,,---,0.00,VWS V12.08,2013-08-17 19:47:00,
2013-08-17 15:52:00,91.4,79.4,29.97,ESE,116,0.0,23.0,68,0.00,,---,0.00,VWS V12.08,2013-08-17 19:52:00,
2013-08-17 15:57:00,91.3,79.7,29.97,ESE,116,0.0,23.0,69,0.00,,---,0.00,VWS V12.08,2013-08-17 19:57:00,
2013-08-17 16:02:00,91.1,79.1,29.96,ESE,116,0.0,23.0,68,0.00,,---,0.00,VWS V12.08,2013-08-17 20:02:00,
2013-08-17 16:07:00,91.3,80.2,29.96,ESE,115,0.0,23.0,70,0.00,,---,0.00,VWS V12.08,2013-08-17 20:07:00,
2013-08-17 16:12:00,92.1,79.6,29.96,ESE,120,4.0,23.0,67,0.00,,---,0.00,VWS V12.08,2013-08-17 20:12:00,
2013-08-17 16:17:00,92.8,79.8,29.96,ESE,116,6.0,23.0,66,0.00,,---,0.00,VWS V12.08,2013-08-17 20:17:00,
2013-08-17 16:22:00,93.6,80.5,29.96,SE,131,5.0,23.0,66,0.00,,---,0.00,VWS V12.08,2013-08-17 20:22:00,
2013-08-17 16:27:00,94.0,79.0,29.96,SE,137,5.0,23.0,62,0.00,,---,0.00,VWS V12.08,2013-08-17 20:27:00,
2013-08-17 16:32:00,93.8,78.8,29.96,SSE,161,2.0,23.0,62,0.00,,---,0.00,VWS V12.08,2013-08-17 20:32:00,
2013-08-17 16:37:00,93.8,78.8,29.95,ESE,119,5.0,23.0,62,0.00,,---,0.00,VWS V12.08,2013-08-17 20:37:00,
2013-08-17 16:42:00,93.7,79.7,29.96,SE,130,1.0,23.0,64,0.00,,---,0.00,VWS V12.08,2013-08-17 20:42:00,
2013-08-17 16:47:00,93.4,78.9,29.95,ESE,117,4.0,23.0,63,0.00,,---,0.00,VWS V12.08,2013-08-17 20:47:00,
2013-08-17 16:52:00,92.7,78.3,29.95,ESE,109,14.0,23.0,63,0.00,,---,0.00,VWS V12.08,2013-08-17 20:52:00,
2013-08-17 16:57:00,91.2,77.3,29.95,ESE,111,9.0,23.0,64,0.00,,---,0.00,VWS V12.08,2013-08-17 20:57:00,
2013-08-17 17:02:00,90.2,77.8,29.95,ESE,116,9.0,23.0,67,0.00,,---,0.00,VWS V12.08,2013-08-17 21:02:00,
2013-08-17 17:07:00,89.5,77.1,29.96,ESE,123,9.0,23.0,67,0.00,,---,0.00,VWS V12.08,2013-08-17 21:07:00,
2013-08-17 17:12:00,88.6,77.6,29.97,SSE,161,14.0,23.0,70,0.00,,---,0.00,VWS V12.08,2013-08-17 21:12:00,
2013-08-17 17:17:00,85.0,75.8,29.97,SSE,166,14.0,24.0,74,0.00,,---,0.00,VWS V12.08,2013-08-17 21:17:00,
2013-08-17 17:22:00,79.6,73.3,30.00,SE,126,24.0,33.0,81,0.00,,---,0.00,VWS V12.08,2013-08-17 21:22:00,
2013-08-17 17:27:00,77.2,73.0,30.02,ESE,109,8.0,33.0,87,0.00,,---,0.00,VWS V12.08,2013-08-17 21:27:00,
2013-08-17 17:32:00,76.7,73.6,30.03,ESE,117,0.0,33.0,90,0.00,,---,0.00,VWS V12.08,2013-08-17 21:32:00,
2013-08-17 17:37:00,76.0,72.9,30.02,SSE,159,4.0,33.0,90,0.00,,---,0.00,VWS V12.08,2013-08-17 21:37:00,
2013-08-17 17:42:00,75.9,73.4,30.01,South,175,7.0,33.0,92,0.00,,---,0.00,VWS V12.08,2013-08-17 21:42:00,
2013-08-17 17:47:00,75.8,73.3,30.02,South,184,5.0,33.0,92,0.00,,---,0.00,VWS V12.08,2013-08-17 21:47:00,
2013-08-17 17:52:00,75.6,73.1,30.03,South,184,2.0,33.0,92,0.00,,---,0.00,VWS V12.08,2013-08-17 21:52:00,
2013-08-17 17:57:00,75.5,73.0,30.03,South,184,0.0,33.0,92,0.00,,---,0.00,VWS V12.08,2013-08-17 21:57:00,
2013-08-17 18:02:00,75.5,73.3,30.02,South,185,0.0,33.0,93,0.00,,---,0.00,VWS V12.08,2013-08-17 22:02:00,
2013-08-17 18:07:00,75.7,73.8,30.01,South,185,0.0,33.0,94,0.00,,---,0.00,VWS V12.08,2013-08-17 22:07:00,
2013-08-17 18:12:00,75.8,73.9,30.01,South,185,1.0,33.0,94,0.00,,---,0.00,VWS V12.08,2013-08-17 22:12:00,
2013-08-17 18:17:00,75.8,73.9,30.00,South,184,0.0,33.0,94,0.00,,---,0.00,VWS V12.08,2013-08-17 22:17:00,
2013-08-17 18:22:00,75.8,73.9,29.99,SSE,155,0.0,33.0,94,0.00,,---,0.00,VWS V12.08,2013-08-17 22:22:00,
2013-08-17 18:27:00,75.7,73.8,30.00,SE,132,4.0,33.0,94,0.00,,---,0.00,VWS V12.08,2013-08-17 22:27:00,
2013-08-17 18:32:00,75.7,73.8,30.01,ESE,115,6.0,33.0,94,0.00,,---,0.00,VWS V12.08,2013-08-17 22:32:00,
2013-08-17 18:37:00,75.6,73.8,30.01,East,90,2.0,33.0,94,0.00,,---,0.00,VWS V12.08,2013-08-17 22:37:00,
2013-08-17 18:42:00,75.5,73.7,30.02,NE,51,0.0,33.0,94,0.00,,---,0.00,VWS V12.08,2013-08-17 22:42:00,
2013-08-17 18:47:00,75.3,73.5,30.02,NE,47,0.0,33.0,94,0.00,,---,0.00,VWS V12.08,2013-08-17 22:47:00,
2013-08-17 18:52:00,75.1,73.6,30.02,NE,48,4.0,33.0,95,0.00,,---,0.00,VWS V12.08,2013-08-17 22:52:00,
2013-08-17 18:57:00,75.5,74.0,30.05,SSW,205,2.0,33.0,95,0.00,,---,0.00,VWS V12.08,2013-08-17 22:57:00,
2013-08-17 19:02:00,75.8,74.3,30.05,SW,217,5.0,33.0,95,0.00,,---,0.00,VWS V12.08,2013-08-17 23:02:00,
2013-08-17 19:07:00,75.9,74.4,30.05,WSW,237,0.0,33.0,95,0.00,,---,0.00,VWS V12.08,2013-08-17 23:07:00,
2013-08-17 19:12:00,75.2,73.4,30.05,SW,222,0.0,33.0,94,0.00,,---,0.00,VWS V12.08,2013-08-17 23:12:00,
2013-08-17 19:17:00,74.8,73.0,30.05,SW,222,0.0,33.0,94,0.00,,---,0.00,VWS V12.08,2013-08-17 23:17:00,
2013-08-17 19:22:00,74.7,72.9,30.05,SW,222,0.0,33.0,94,0.00,,---,0.00,VWS V12.08,2013-08-17 23:22:00,
2013-08-17 19:27:00,74.7,73.2,30.05,SW,222,0.0,33.0,95,0.00,,---,0.00,VWS V12.08,2013-08-17 23:27:00,
2013-08-17 19:32:00,74.7,73.2,30.05,SW,222,0.0,33.0,95,0.00,,---,0.00,VWS V12.08,2013-08-17 23:32:00,
2013-08-17 19:37:00,74.8,73.3,30.05,SW,222,0.0,33.0,95,0.00,,---,0.00,VWS V12.08,2013-08-17 23:37:00,
2013-08-17 19:42:00,74.9,73.4,30.05,SW,222,0.0,33.0,95,0.00,,---,0.00,VWS V12.08,2013-08-17 23:42:00,
2013-08-17 19:47:00,75.1,73.9,30.04,SW,222,0.0,33.0,96,0.00,,---,0.00,VWS V12.08,2013-08-17 23:47:00,
2013-08-17 19:52:00,75.2,74.0,30.04,SW,217,3.0,33.0,96,0.00,,---,0.00,VWS V12.08,2013-08-17 23:52:00,
2013-08-17 19:57:00,75.1,73.9,30.04,SW,217,0.0,33.0,96,0.00,,---,0.00,VWS V12.08,2013-08-17 23:57:00,
2013-08-17 20:02:00,75.0,73.8,30.05,SW,217,0.0,33.0,96,0.00,,---,0.00,VWS V12.08,2013-08-18 00:02:00,
2013-08-17 20:07:00,74.9,73.4,30.05,SW,217,0.0,33.0,95,0.00,,---,0.00,VWS V12.08,2013-08-18 00:07:00,
2013-08-17 20:12:00,74.8,73.6,30.06,SW,217,0.0,33.0,96,0.00,,---,0.00,VWS V12.08,2013-08-18 00:12:00,
2013-08-17 20:17:00,74.7,73.5,30.05,SW,217,0.0,33.0,96,0.00,,---,0.00,VWS V12.08,2013-08-18 00:17:00,
2013-08-17 20:22:00,74.8,73.6,30.05,SW,217,0.0,33.0,96,0.00,,---,0.00,VWS V12.08,2013-08-18 00:22:00,
2013-08-17 20:27:00,74.8,73.6,30.05,SW,217,0.0,33.0,96,0.00,,---,0.00,VWS V12.08,2013-08-18 00:27:00,
2013-08-17 20:32:00,74.8,73.6,30.05,SW,217,0.0,33.0,96,0.00,,---,0.00,VWS V12.08,2013-08-18 00:32:00,
2013-08-17 20:37:00,74.8,73.6,30.05,SW,217,0.0,33.0,96,0.00,,---,0.00,VWS V12.08,2013-08-18 00:37:00,
2013-08-17 20:42:00,74.9,73.7,30.05,SW,217,0.0,33.0,96,0.00,,---,0.00,VWS V12.08,2013-08-18 00:42:00,
2013-08-17 20:47:00,75.0,73.8,30.05,SW,217,0.0,33.0,96,0.00,,---,0.00,VWS V12.08,2013-08-18 00:47:00,
2013-08-17 20:52:00,75.0,73.8,30.05,SW,217,0.0,33.0,96,0.00,,---,0.00,VWS V12.08,2013-08-18 00:52:00,
2013-08-17 20:57:00,75.0,73.8,30.05,SW,217,0.0,33.0,96,0.00,,---,0.00,VWS V12.08,2013-08-18 00:57:00,
2013-08-17 21:02:00,75.0,73.8,30.05,SW,217,0.0,33.0,96,0.00,,---,0.00,VWS V12.08,2013-08-18 01:02:00,
2013-08-17 21:07:00,75.0,73.8,30.05,SW,217,0.0,33.0,96,0.00,,---,0.00,VWS V12.08,2013-08-18 01:07:00,
2013-08-17 21:12:00,75.0,73.8,30.06,SW,217,0.0,33.0,96,0.00,,---,0.00,VWS V12.08,2013-08-18 01:12:00,
2013-08-17 21:17:00,75.1,74.2,30.06,SW,217,0.0,33.0,97,0.00,,---,0.00,VWS V12.08,2013-08-18 01:17:00,
2013-08-17 21:22:00,75.2,74.0,30.07,SW,217,0.0,33.0,96,0.00,,---,0.00,VWS V12.08,2013-08-18 01:22:00,
2013-08-17 21:27:00,75.2,74.0,30.06,SW,219,3.0,33.0,96,0.00,,---,0.00,VWS V12.08,2013-08-18 01:27:00,
2013-08-17 21:32:00,75.2,74.0,30.07,SW,228,0.0,33.0,96,0.00,,---,0.00,VWS V12.08,2013-08-18 01:32:00,
2013-08-17 21:37:00,75.3,74.1,30.08,SW,228,0.0,33.0,96,0.00,,---,0.00,VWS V12.08,2013-08-18 01:37:00,
2013-08-17 21:42:00,75.2,74.0,30.08,SW,228,0.0,33.0,96,0.00,,---,0.00,VWS V12.08,2013-08-18 01:42:00,
2013-08-17 21:47:00,75.2,74.0,30.08,SW,228,0.0,33.0,96,0.00,,---,0.00,VWS V12.08,2013-08-18 01:47:00,
2013-08-17 21:52:00,75.3,74.4,30.08,SW,228,0.0,33.0,97,0.00,,---,0.00,VWS V12.08,2013-08-18 01:52:00,
2013-08-17 21:57:00,75.3,74.1,30.08,SW,228,0.0,33.0,96,0.00,,---,0.00,VWS V12.08,2013-08-18 01:57:00,
2013-08-17 22:02:00,75.3,74.1,30.08,SW,228,0.0,33.0,96,0.00,,---,0.00,VWS V12.08,2013-08-18 02:02:00,
2013-08-17 22:07:00,75.3,74.1,30.08,SW,228,0.0,33.0,96,0.00,,---,0.00,VWS V12.08,2013-08-18 02:07:00,
2013-08-17 22:12:00,75.2,74.0,30.08,SW,228,0.0,33.0,96,0.00,,---,0.00,VWS V12.08,2013-08-18 02:12:00,
2013-08-17 22:17:00,75.1,73.9,30.08,SW,228,0.0,33.0,96,0.00,,---,0.00,VWS V12.08,2013-08-18 02:17:00,
2013-08-17 22:22:00,75.1,73.9,30.08,SW,228,0.0,33.0,96,0.00,,---,0.00,VWS V12.08,2013-08-18 02:22:00,
2013-08-17 22:27:00,74.9,73.7,30.08,SW,228,0.0,33.0,96,0.00,,---,0.00,VWS V12.08,2013-08-18 02:27:00,
2013-08-17 22:32:00,74.8,73.6,30.08,SW,228,0.0,33.0,96,0.00,,---,0.00,VWS V12.08,2013-08-18 02:32:00,
2013-08-17 22:37:00,74.8,73.6,30.07,SW,228,0.0,33.0,96,0.00,,---,0.00,VWS V12.08,2013-08-18 02:37:00,
2013-08-17 22:42:00,74.7,73.5,30.08,SW,228,0.0,33.0,96,0.00,,---,0.00,VWS V12.08,2013-08-18 02:42:00,
2013-08-17 22:47:00,74.6,73.4,30.07,SW,228,0.0,33.0,96,0.00,,---,0.00,VWS V12.08,2013-08-18 02:47:00,
2013-08-17 22:52:00,74.5,73.3,30.07,SW,228,0.0,33.0,96,0.00,,---,0.00,VWS V12.08,2013-08-18 02:52:00,
2013-08-17 22:57:00,74.5,73.3,30.07,SW,228,0.0,33.0,96,0.00,,---,0.00,VWS V12.08,2013-08-18 02:57:00,
2013-08-17 23:02:00,74.4,73.2,30.07,SW,228,0.0,33.0,96,0.00,,---,0.00,VWS V12.08,2013-08-18 03:02:00,
2013-08-17 23:07:00,74.3,73.4,30.06,SW,228,0.0,33.0,97,0.00,,---,0.00,VWS V12.08,2013-08-18 03:07:00,
2013-08-17 23:12:00,74.3,73.4,30.06,SW,228,0.0,33.0,97,0.00,,---,0.00,VWS V12.08,2013-08-18 03:12:00,
2013-08-17 23:17:00,74.3,73.1,30.06,SW,228,0.0,33.0,96,0.00,,---,0.00,VWS V12.08,2013-08-18 03:17:00,
2013-08-17 23:22:00,74.3,73.4,30.06,SW,228,0.0,33.0,97,0.00,,---,0.00,VWS V12.08,2013-08-18 03:22:00,
2013-08-17 23:27:00,74.4,73.5,30.06,SW,228,0.0,33.0,97,0.00,,---,0.00,VWS V12.08,2013-08-18 03:27:00,
2013-08-17 23:32:00,74.4,73.5,30.06,SW,228,0.0,33.0,97,0.00,,---,0.00,VWS V12.08,2013-08-18 03:32:00,
2013-08-17 23:37:00,74.4,73.5,30.06,SW,228,0.0,33.0,97,0.00,,---,0.00,VWS V12.08,2013-08-18 03:37:00,
2013-08-17 23:42:00,74.4,73.5,30.06,SW,228,0.0,33.0,97,0.00,,---,0.00,VWS V12.08,2013-08-18 03:42:00,
2013-08-17 23:47:00,74.4,73.5,30.06,SW,228,0.0,33.0,97,0.00,,---,0.00,VWS V12.08,2013-08-18 03:47:00,
2013-08-17 23:52:00,74.4,73.5,30.06,SW,228,0.0,33.0,97,0.00,,---,0.00,VWS V12.08,2013-08-18 03:52:00,
2013-08-17 23:57:00,74.4,73.5,30.07,SW,228,0.0,33.0,97,0.00,,---,0.00,VWS V12.08,2013-08-18 03:57:00,